Flag for U.S.A. Weather past 2 weeks in Cumberland, Maryland, U.S.A.

Now
74 °F

Broken clouds.


Feels Like: 74 °F
Forecast: 68 / 80 °F
Wind: 6 mph from East

Location: Eastern West Virginia Regional Airport

Current Time: Sep 5, 2015 at 10:26:36 AM

Latest Report: Sep 5, 2015 at 9:53 AM


Visibility: 6 mi

Pressure: 30.24 "Hg

Humidity: 79%

Dew point: 67 °F

Location of CumberlandLocation

Historic Weather in Cumberland — Graph

°F

Cumberland temperature yesterday

Maximum temperature yesterday: 92 °F (at 2:53 PM)
Minimum temperature yesterday: 65 °F (at 4:53 AM)
Average temperature yesterday: 77 °F

Past Weeks' High & Low Weather Summary

 TemperatureHumidityPressure
High93 °F (Sep 3, 2:53 PM)97% (Aug 22, 6:53 AM)30.24 "Hg (Aug 22, 6:53 AM)
Low53 °F (Aug 23, 5:53 AM)32% (Aug 25, 5:53 PM)29.81 "Hg (Aug 24, 6:53 PM)
Average72 °F68%30.05 "Hg
* Reported Aug 21 8:53 AM — Sep 5 8:53 AM, Cumberland, Weather by CustomWeather, © 2015

Note: Actual official high and low records may vary slightly from our data, if they occured in-between our weather recording intervals... More about our weather records

Advertising

Cumberland weather history for previous 24 hours

 ConditionsComfort  
Time TempWeatherWind HumidityBarometerVisibility
8:53 AM
Sat, Sep 5
73 °FOvercast.8 mph79%30.24 "Hg6 mi
7:53 AM71 °FFog.5 mph87%30.23 "Hg4 mi
6:53 AM69 °FFog.5 mph96%30.22 "Hg3 mi
6:00 AM70 °FFog.5 mph93%30.21 "Hg4 mi
4:53 AM72 °FFog.No wind87%30.17 "Hg5 mi
3:53 AM71 °FFog.No wind93%30.16 "Hg4 mi
2:53 AM71 °FFog.No wind93%30.15 "Hg5 mi
1:53 AM71 °FFog.No wind93%30.15 "Hg4 mi
12:53 AM73 °FFog.3 mph94%30.15 "Hg4 mi
11:53 PM
Fri, Sep 4
73 °FFog.3 mph90%30.14 "Hg4 mi
10:53 PM73 °FFog.3 mph90%30.13 "Hg5 mi
9:53 PM75 °FLight rain. Mostly cloudy.6 mph82%30.12 "Hg5 mi
8:53 PM77 °FClear.No wind71%30.08 "Hg7 mi
7:53 PM79 °FSunny.No wind67%30.07 "Hg8 mi
6:53 PM83 °FSunny.No wind57%30.04 "Hg7 mi
5:53 PM85 °FSunny.8 mph53%30.03 "Hg7 mi
4:53 PM87 °FSunny.9 mph50%30.02 "Hg8 mi
3:53 PM91 °FScattered clouds.16 mph42%30.01 "Hg9 mi
2:53 PM92 °FScattered clouds.3 mph40%30.01 "Hg10 mi
1:53 PM89 °FPassing clouds.6 mph42%30.02 "Hg8 mi
12:53 PM89 °FPassing clouds.13 mph45%30.03 "Hg8 mi
11:53 AM87 °FSunny.7 mph51%30.04 "Hg7 mi
10:53 AM84 °FSunny.5 mph57%30.04 "Hg6 mi
Weather by CustomWeather, © 2015

See weather overviewHow to use our weather pages